Time,TemperatureF,DewpointF,PressureIn,WindDirection,WindDirectionDegrees,WindSpeedMPH,WindSpeedGustMPH,Humidity,HourlyPrecipIn,Conditions,Clouds,dailyrainin,SoftwareType,DateUTC
2013-01-23 00:14:00,16.9,11.0,30.40,NNE,23,0.0,0.0,79,0.00,,,0.00,weatherlink.com 1.10,2013-01-23 06:14:00,
2013-01-23 00:29:00,16.6,12.0,30.40,NNE,23,0.0,0.0,81,0.00,,,0.00,weatherlink.com 1.10,2013-01-23 06:29:00,
2013-01-23 00:44:00,16.3,12.0,30.39,NNE,23,0.0,0.0,83,0.00,,,0.00,weatherlink.com 1.10,2013-01-23 06:44:00,
2013-01-23 00:59:00,16.0,11.0,30.39,NNE,23,0.0,0.0,82,0.00,,,0.00,weatherlink.com 1.10,2013-01-23 06:59:00,
2013-01-23 01:14:00,15.7,11.0,30.39,NNE,23,0.0,0.0,81,0.00,,,0.00,weatherlink.com 1.10,2013-01-23 07:14:00,
2013-01-23 01:29:00,15.5,11.0,30.39,NNE,23,0.0,0.0,82,0.00,,,0.00,weatherlink.com 1.10,2013-01-23 07:29:00,
2013-01-23 01:44:00,15.3,11.0,30.39,NNE,23,0.0,0.0,84,0.00,,,0.00,weatherlink.com 1.10,2013-01-23 07:44:00,
2013-01-23 01:59:00,15.2,12.0,30.39,NNE,23,0.0,0.0,86,0.00,,,0.00,weatherlink.com 1.10,2013-01-23 07:59:00,
2013-01-23 02:14:00,15.2,12.0,30.39,NNE,23,0.0,0.0,88,0.00,,,0.00,weatherlink.com 1.10,2013-01-23 08:14:00,
2013-01-23 02:29:00,15.1,12.0,30.39,NNE,23,0.0,0.0,88,0.00,,,0.00,weatherlink.com 1.10,2013-01-23 08:29:00,
2013-01-23 02:44:00,14.9,12.0,30.40,NNE,23,0.0,0.0,86,0.00,,,0.00,weatherlink.com 1.10,2013-01-23 08:44:00,
2013-01-23 02:59:00,14.9,12.0,30.39,NNE,23,0.0,0.0,87,0.00,,,0.00,weatherlink.com 1.10,2013-01-23 08:59:00,
2013-01-23 03:15:00,14.8,11.0,30.39,NNE,23,0.0,0.0,86,0.00,,,0.00,weatherlink.com 1.10,2013-01-23 09:15:00,
2013-01-23 03:30:00,14.6,12.0,30.39,NNE,23,0.0,0.0,88,0.00,,,0.00,weatherlink.com 1.10,2013-01-23 09:30:00,
2013-01-23 03:45:00,14.5,12.0,30.38,NNE,23,0.0,0.0,88,0.00,,,0.00,weatherlink.com 1.10,2013-01-23 09:45:00,
2013-01-23 04:00:00,14.3,11.0,30.39,NNE,23,0.0,0.0,88,0.00,,,0.00,weatherlink.com 1.10,2013-01-23 10:00:00,
2013-01-23 04:15:00,14.2,12.0,30.39,NNE,23,0.0,0.0,89,0.00,,,0.00,weatherlink.com 1.10,2013-01-23 10:15:00,
2013-01-23 04:30:00,14.1,12.0,30.38,NNE,23,0.0,0.0,89,0.00,,,0.00,weatherlink.com 1.10,2013-01-23 10:30:00,
2013-01-23 04:45:00,14.1,12.0,30.38,NNE,23,0.0,0.0,90,0.00,,,0.00,weatherlink.com 1.10,2013-01-23 10:45:00,
2013-01-23 05:00:00,14.0,12.0,30.37,NNE,23,0.0,0.0,90,0.00,,,0.00,weatherlink.com 1.10,2013-01-23 11:00:00,
2013-01-23 05:15:00,14.0,12.0,30.37,NNE,23,0.0,0.0,90,0.00,,,0.00,weatherlink.com 1.10,2013-01-23 11:15:00,
2013-01-23 05:30:00,14.2,12.0,30.37,NNE,23,0.0,0.0,91,0.00,,,0.00,weatherlink.com 1.10,2013-01-23 11:30:00,
2013-01-23 05:45:00,14.2,12.0,30.37,NNE,23,0.0,0.0,91,0.00,,,0.00,weatherlink.com 1.10,2013-01-23 11:45:00,
2013-01-23 06:00:00,14.1,12.0,30.37,NNE,23,0.0,0.0,91,0.00,,,0.00,weatherlink.com 1.10,2013-01-23 12:00:00,
2013-01-23 06:15:00,14.1,12.0,30.36,NNE,23,0.0,0.0,91,0.00,,,0.00,weatherlink.com 1.10,2013-01-23 12:15:00,
2013-01-23 06:30:00,14.0,12.0,30.36,NNE,23,0.0,0.0,91,0.00,,,0.00,weatherlink.com 1.10,2013-01-23 12:30:00,
2013-01-23 06:45:00,13.9,12.0,30.37,NNE,23,0.0,0.0,90,0.00,,,0.00,weatherlink.com 1.10,2013-01-23 12:45:00,
2013-01-23 07:00:00,14.0,12.0,30.37,NNE,23,0.0,0.0,91,0.00,,,0.00,weatherlink.com 1.10,2013-01-23 13:00:00,
2013-01-23 07:15:00,14.2,12.0,30.37,NNE,23,0.0,0.0,91,0.00,,,0.00,weatherlink.com 1.10,2013-01-23 13:15:00,
2013-01-23 07:30:00,14.6,13.0,30.36,NNE,23,0.0,0.0,91,0.00,,,0.00,weatherlink.com 1.10,2013-01-23 13:30:00,
2013-01-23 07:45:00,15.3,13.0,30.36,NNE,23,0.0,0.0,91,0.00,,,0.00,weatherlink.com 1.10,2013-01-23 13:45:00,
2013-01-23 08:00:00,17.0,15.0,30.36,NNE,23,0.0,0.0,91,0.00,,,0.00,weatherlink.com 1.10,2013-01-23 14:00:00,
2013-01-23 08:15:00,19.9,16.0,30.36,East,86,0.0,2.0,86,0.00,,,0.00,weatherlink.com 1.10,2013-01-23 14:15:00,
2013-01-23 08:30:00,23.7,17.0,30.36,East,96,0.0,2.0,76,0.00,,,0.00,weatherlink.com 1.10,2013-01-23 14:30:00,
2013-01-23 08:45:00,26.3,17.0,30.36,ESE,115,0.0,3.0,69,0.00,,,0.00,weatherlink.com 1.10,2013-01-23 14:45:00,
2013-01-23 09:00:00,27.6,17.0,30.36,East,80,2.0,4.0,65,0.00,,,0.00,weatherlink.com 1.10,2013-01-23 15:00:00,
2013-01-23 09:15:00,28.2,17.0,30.36,East,98,0.0,5.0,64,0.00,,,0.00,weatherlink.com 1.10,2013-01-23 15:15:00,
2013-01-23 09:30:00,31.2,20.0,30.35,ESE,111,2.0,5.0,64,0.00,,,0.00,weatherlink.com 1.10,2013-01-23 15:30:00,
2013-01-23 09:45:00,33.4,19.0,30.35,SSE,164,3.0,4.0,56,0.00,,,0.00,weatherlink.com 1.10,2013-01-23 15:45:00,
2013-01-23 10:00:00,34.7,20.0,30.35,SSE,163,4.0,5.0,55,0.00,,,0.00,weatherlink.com 1.10,2013-01-23 16:00:00,
2013-01-23 10:15:00,36.0,20.0,30.34,SW,215,3.0,7.0,53,0.00,,,0.00,weatherlink.com 1.10,2013-01-23 16:15:00,
2013-01-23 10:30:00,36.4,21.0,30.33,SSE,150,1.0,8.0,53,0.00,,,0.00,weatherlink.com 1.10,2013-01-23 16:30:00,
2013-01-23 10:45:00,37.6,22.0,30.33,SSW,205,4.0,8.0,53,0.00,,,0.00,weatherlink.com 1.10,2013-01-23 16:45:00,
2013-01-23 11:01:00,39.0,22.0,30.32,SW,219,5.0,7.0,51,0.00,,,0.00,weatherlink.com 1.10,2013-01-23 17:01:00,
2013-01-23 11:16:00,40.0,23.0,30.32,SW,221,4.0,10.0,52,0.00,,,0.00,weatherlink.com 1.10,2013-01-23 17:16:00,
2013-01-23 11:31:00,40.8,24.0,30.30,South,191,4.0,10.0,51,0.00,,,0.00,weatherlink.com 1.10,2013-01-23 17:31:00,
2013-01-23 11:46:00,41.8,25.0,30.28,WSW,243,7.0,9.0,52,0.00,,,0.00,weatherlink.com 1.10,2013-01-23 17:46:00,
2013-01-23 12:01:00,42.6,25.0,30.27,SW,227,5.0,12.0,51,0.00,,,0.00,weatherlink.com 1.10,2013-01-23 18:01:00,
2013-01-23 12:16:00,43.5,26.0,30.26,WSW,239,8.0,10.0,51,0.00,,,0.00,weatherlink.com 1.10,2013-01-23 18:16:00,
2013-01-23 12:31:00,44.0,26.0,30.25,SW,219,6.0,10.0,50,0.00,,,0.00,weatherlink.com 1.10,2013-01-23 18:31:00,
2013-01-23 12:46:00,44.8,27.0,30.24,SW,224,5.0,9.0,51,0.00,,,0.00,weatherlink.com 1.10,2013-01-23 18:46:00,
2013-01-23 13:01:00,45.2,28.0,30.23,SW,215,7.0,10.0,52,0.00,,,0.00,weatherlink.com 1.10,2013-01-23 19:01:00,
2013-01-23 13:16:00,46.0,29.0,30.23,WSW,250,9.0,10.0,51,0.00,,,0.00,weatherlink.com 1.10,2013-01-23 19:16:00,
2013-01-23 13:31:00,46.2,29.0,30.22,WSW,243,9.0,11.0,52,0.00,,,0.00,weatherlink.com 1.10,2013-01-23 19:31:00,
2013-01-23 13:46:00,46.1,29.0,30.22,SW,221,6.0,12.0,52,0.00,,,0.00,weatherlink.com 1.10,2013-01-23 19:46:00,
2013-01-23 14:01:00,46.2,29.0,30.21,SW,216,1.0,12.0,51,0.00,,,0.00,weatherlink.com 1.10,2013-01-23 20:01:00,
2013-01-23 14:16:00,46.2,30.0,30.20,SSW,200,4.0,9.0,53,0.00,,,0.00,weatherlink.com 1.10,2013-01-23 20:16:00,
2013-01-23 14:31:00,46.3,30.0,30.20,WSW,249,10.0,13.0,54,0.00,,,0.00,weatherlink.com 1.10,2013-01-23 20:31:00,
2013-01-23 14:46:00,45.8,30.0,30.20,WSW,238,10.0,10.0,55,0.00,,,0.00,weatherlink.com 1.10,2013-01-23 20:46:00,
2013-01-23 15:01:00,45.8,30.0,30.19,SSW,208,4.0,13.0,55,0.00,,,0.00,weatherlink.com 1.10,2013-01-23 21:01:00,
2013-01-23 15:16:00,45.6,31.0,30.19,SSW,204,2.0,10.0,57,0.00,,,0.00,weatherlink.com 1.10,2013-01-23 21:16:00,
2013-01-23 15:31:00,45.7,31.0,30.19,SW,235,4.0,10.0,57,0.00,,,0.00,weatherlink.com 1.10,2013-01-23 21:31:00,
2013-01-23 15:46:00,45.9,31.0,30.18,SW,226,4.0,7.0,57,0.00,,,0.00,weatherlink.com 1.10,2013-01-23 21:46:00,
2013-01-23 16:01:00,46.1,31.0,30.18,SW,218,4.0,8.0,57,0.00,,,0.00,weatherlink.com 1.10,2013-01-23 22:01:00,
2013-01-23 16:16:00,46.3,32.0,30.17,SSW,201,3.0,7.0,57,0.00,,,0.00,weatherlink.com 1.10,2013-01-23 22:16:00,
2013-01-23 16:31:00,45.9,32.0,30.17,SW,223,3.0,8.0,58,0.00,,,0.00,weatherlink.com 1.10,2013-01-23 22:31:00,
2013-01-23 16:46:00,45.2,31.0,30.16,SSW,204,1.0,6.0,59,0.00,,,0.00,weatherlink.com 1.10,2013-01-23 22:46:00,
2013-01-23 17:01:00,44.4,31.0,30.16,SW,223,1.0,4.0,60,0.00,,,0.00,weatherlink.com 1.10,2013-01-23 23:01:00,
2013-01-23 17:16:00,42.4,30.0,30.17,WSW,248,0.0,1.0,63,0.00,,,0.00,weatherlink.com 1.10,2013-01-23 23:16:00,
2013-01-23 17:32:00,40.2,29.0,30.17,WSW,248,0.0,0.0,65,0.00,,,0.00,weatherlink.com 1.10,2013-01-23 23:32:00,
2013-01-23 17:47:00,37.1,28.0,30.18,WSW,248,0.0,0.0,69,0.00,,,0.00,weatherlink.com 1.10,2013-01-23 23:47:00,
2013-01-23 18:02:00,35.0,28.0,30.18,WSW,248,0.0,0.0,74,0.00,,,0.00,weatherlink.com 1.10,2013-01-24 00:02:00,
2013-01-23 18:17:00,33.4,27.0,30.18,WSW,248,0.0,0.0,76,0.00,,,0.00,weatherlink.com 1.10,2013-01-24 00:17:00,
2013-01-23 18:32:00,32.2,26.0,30.19,WSW,248,0.0,0.0,78,0.00,,,0.00,weatherlink.com 1.10,2013-01-24 00:32:00,
2013-01-23 18:47:00,31.1,26.0,30.19,WSW,248,0.0,0.0,81,0.00,,,0.00,weatherlink.com 1.10,2013-01-24 00:47:00,
2013-01-23 19:02:00,30.4,26.0,30.19,WSW,248,0.0,2.0,85,0.00,,,0.00,weatherlink.com 1.10,2013-01-24 01:02:00,
2013-01-23 19:17:00,29.8,26.0,30.19,WSW,248,0.0,0.0,84,0.00,,,0.00,weatherlink.com 1.10,2013-01-24 01:17:00,
2013-01-23 19:32:00,29.0,25.0,30.20,WSW,248,0.0,0.0,85,0.00,,,0.00,weatherlink.com 1.10,2013-01-24 01:32:00,
2013-01-23 19:47:00,28.5,25.0,30.20,WSW,248,0.0,0.0,88,0.00,,,0.00,weatherlink.com 1.10,2013-01-24 01:47:00,
2013-01-23 20:02:00,27.9,25.0,30.20,WSW,248,0.0,0.0,87,0.00,,,0.00,weatherlink.com 1.10,2013-01-24 02:02:00,
2013-01-23 20:17:00,27.5,24.0,30.21,WSW,248,0.0,0.0,88,0.00,,,0.00,weatherlink.com 1.10,2013-01-24 02:17:00,
2013-01-23 20:32:00,27.1,24.0,30.21,WSW,248,0.0,0.0,89,0.00,,,0.00,weatherlink.com 1.10,2013-01-24 02:32:00,
2013-01-23 20:47:00,26.8,24.0,30.22,WSW,248,0.0,0.0,89,0.00,,,0.00,weatherlink.com 1.10,2013-01-24 02:47:00,
2013-01-23 21:02:00,26.5,24.0,30.22,WSW,248,0.0,0.0,89,0.00,,,0.00,weatherlink.com 1.10,2013-01-24 03:02:00,
2013-01-23 21:17:00,26.0,24.0,30.23,WSW,248,0.0,0.0,90,0.00,,,0.00,weatherlink.com 1.10,2013-01-24 03:17:00,
2013-01-23 21:32:00,25.8,24.0,30.23,WSW,248,0.0,0.0,91,0.00,,,0.00,weatherlink.com 1.10,2013-01-24 03:32:00,
2013-01-23 21:47:00,25.6,23.0,30.23,WSW,248,0.0,0.0,91,0.00,,,0.00,weatherlink.com 1.10,2013-01-24 03:47:00,
2013-01-23 22:02:00,25.3,23.0,30.23,WSW,248,0.0,0.0,91,0.00,,,0.00,weatherlink.com 1.10,2013-01-24 04:02:00,
2013-01-23 22:17:00,25.1,23.0,30.24,WSW,248,0.0,0.0,92,0.00,,,0.00,weatherlink.com 1.10,2013-01-24 04:17:00,
2013-01-23 22:32:00,24.9,23.0,30.24,WSW,248,0.0,0.0,91,0.00,,,0.00,weatherlink.com 1.10,2013-01-24 04:32:00,
2013-01-23 22:47:00,24.6,23.0,30.24,WSW,248,0.0,0.0,92,0.00,,,0.00,weatherlink.com 1.10,2013-01-24 04:47:00,
2013-01-23 23:17:00,24.4,23.0,30.26,WSW,248,0.0,1.0,93,0.00,,,0.00,weatherlink.com 1.10,2013-01-24 05:17:00,
2013-01-23 23:32:00,25.4,24.0,30.26,WSW,248,0.0,1.0,95,0.00,,,0.00,weatherlink.com 1.10,2013-01-24 05:32:00,
2013-01-23 23:47:00,26.6,26.0,30.26,WNW,294,1.0,2.0,96,0.00,,,0.00,weatherlink.com 1.10,2013-01-24 05:47:00,